IQ1ZW Weather Reports


time (UTC)temp
C
wind
direction
speed
KPH
gust
KPH
rain 1hr
cm
rain 24hr
cm
rain mn
cm
humidity
%
barometer
mb
20260507224233 13 116 0.0 6.4 0.00 0.00 0.00 88 1009.6
20260507223736 13 105 1.6 4.8 0.00 0.00 0.00 87 1009.6
20260507223233 13 113 1.6 4.8 0.00 0.00 0.00 87 1009.6
20260507222737 14 66 1.6 9.7 0.00 0.00 0.00 87 1009.6
20260507222236 14 64 0.0 0.0 0.00 0.00 0.00 88 1009.6
20260507221736 14 64 0.0 1.6 0.00 0.00 0.00 88 1009.6
20260507221236 14 64 3.2 3.2 0.00 0.00 0.00 88 1009.6
20260507220736 14 64 0.0 0.0 0.00 0.00 0.00 89 1009.6
20260507220237 14 64 0.0 0.0 0.00 0.00 0.00 89 1009.5
20260507215736 14 64 0.0 0.0 0.00 0.00 0.00 89 1009.5
20260507215236 14 64 0.0 0.0 0.00 0.00 0.00 90 1009.4
20260507214736 14 64 0.0 0.0 0.00 0.00 0.00 89 1009.4
20260507214239 13 64 0.0 0.0 0.00 0.00 0.00 89 1009.4
20260507213733 14 64 0.0 0.0 0.00 0.00 0.00 90 1009.4
20260507213233 14 64 0.0 3.2 0.00 0.00 0.00 90 1009.3
20260507212736 14 64 0.0 1.6 0.00 0.00 0.00 90 1009.2
20260507212234 14 64 0.0 3.2 0.00 0.00 0.00 90 1009.3
20260507211733 14 64 0.0 3.2 0.00 0.00 0.00 89 1009.4
20260507211233 14 63 0.0 3.2 0.00 0.00 0.00 89 1009.4
20260507210733 14 60 0.0 0.0 0.00 0.00 0.00 89 1009.4
20260507210233 14 60 0.0 1.6 0.00 0.00 0.00 89 1009.4
20260507205739 14 60 0.0 3.2 0.00 0.00 0.00 89 1009.5
20260507205236 15 60 0.0 3.2 0.00 0.00 0.00 89 1009.4
20260507204733 15 60 0.0 0.0 0.00 0.00 0.00 89 1009.4
20260507204233 15 60 0.0 0.0 0.00 0.00 0.00 89 1009.4
20260507203733 15 60 0.0 1.6 0.00 0.00 0.00 89 1009.4
20260507203236 15 60 0.0 0.0 0.00 0.00 0.00 89 1009.4
20260507202733 15 60 0.0 1.6 0.00 0.00 0.00 89 1009.3
20260507202233 15 60 0.0 1.6 0.00 0.00 0.00 88 1009.2
20260507201733 15 60 0.0 1.6 0.00 0.00 0.00 88 1009.3
20260507201236 15 60 0.0 0.0 0.00 0.00 0.00 88 1009.2
20260507200733 15 60 0.0 4.8 0.00 0.00 0.00 88 1009.2
20260507200236 15 25 0.0 3.2 0.00 0.00 0.00 88 1009.1
20260507195739 15 178 0.0 3.2 0.00 0.00 0.00 87 1009.1
20260507195233 15 178 0.0 1.6 0.00 0.00 0.00 87 1009.1
20260507194736 15 178 0.0 1.6 0.00 0.00 0.00 87 1009.0
20260507194236 15 178 0.0 1.6 0.00 0.00 0.00 87 1009.0
20260507193734 15 178 0.0 1.6 0.00 0.00 0.00 87 1009.0
20260507193236 15 178 0.0 1.6 0.00 0.00 0.00 86 1009.1
20260507192734 15 189 0.0 1.6 0.00 0.00 0.00 86 1009.0
20260507192236 16 189 0.0 1.6 0.00 0.00 0.00 86 1009.0
20260507191733 16 189 0.0 0.0 0.00 0.00 0.00 87 1008.9
20260507191233 16 189 0.0 0.0 0.00 0.00 0.00 87 1008.8
20260507190733 15 189 0.0 1.6 0.00 0.00 0.00 87 1008.9
20260507190233 15 189 0.0 3.2 0.00 0.00 0.00 86 1008.8
20260507185733 15 189 0.0 3.2 0.00 0.00 0.00 86 1008.8
20260507185236 15 189 3.2 4.8 0.00 0.00 0.00 86 1008.9
20260507184733 15 191 0.0 4.8 0.00 0.00 0.00 86 1009.0
20260507184236 15 191 0.0 6.4 0.00 0.00 0.00 86 1009.0
20260507183734 15 188 0.0 6.4 0.00 0.00 0.00 86 1009.0
20260507183233 15 188 1.6 11.3 0.00 0.00 0.00 86 1009.0
20260507182739 15 199 6.4 11.3 0.00 0.00 0.00 86 1008.9
20260507182234 15 209 0.0 6.4 0.00 0.00 0.00 86 1009.0
20260507181733 15 209 3.2 9.7 0.00 0.00 0.00 86 1008.8
20260507181234 15 189 0.0 9.7 0.00 0.00 0.00 86 1008.7
20260507180742 16 185 3.2 12.9 0.00 0.00 0.00 85 1008.8
20260507180236 16 180 8.0 11.3 0.00 0.00 0.00 85 1008.9
20260507175734 16 170 4.8 9.7 0.00 0.00 0.00 85 1008.9
20260507175236 16 199 1.6 12.9 0.00 0.00 0.00 85 1008.9
20260507174734 16 187 1.6 11.3 0.00 0.00 0.00 86 1008.8
20260507174237 16 198 3.2 11.3 0.00 0.00 0.00 85 1008.9
20260507173737 16 189 9.7 14.5 0.00 0.00 0.00 85 1008.9
20260507173233 16 222 4.8 12.9 0.00 0.00 0.00 85 1008.9
20260507172734 16 219 9.7 14.5 0.00 0.00 0.00 85 1009.0
20260507172237 16 209 6.4 17.7 0.00 0.00 0.00 85 1009.0
20260507171733 16 230 6.4 17.7 0.00 0.00 0.00 85 1009.0
20260507171237 16 196 6.4 17.7 0.00 0.00 0.00 85 1009.0
20260507170737 16 154 4.8 17.7 0.00 0.00 0.00 85 1008.9
20260507170237 16 194 12.9 17.7 0.00 0.00 0.00 86 1008.8
20260507165734 16 168 4.8 17.7 0.00 0.00 0.00 85 1008.8
20260507165237 16 219 14.5 17.7 0.00 0.00 0.00 85 1008.7
20260507164739 16 202 4.8 17.7 0.00 0.00 0.00 85 1008.8
20260507164236 16 158 4.8 17.7 0.00 0.00 0.00 85 1008.7
20260507163734 16 223 6.4 17.7 0.00 0.00 0.00 85 1008.7
20260507163240 16 194 11.3 17.7 0.00 0.00 0.00 85 1008.8
20260507162737 16 205 14.5 17.7 0.00 0.00 0.00 84 1008.8
20260507162234 16 222 4.8 20.9 0.00 0.00 0.00 85 1008.7
20260507161734 16 194 6.4 19.3 0.00 0.00 0.00 85 1008.7
20260507161237 16 132 11.3 17.7 0.00 0.00 0.00 84 1008.7
20260507160734 16 127 9.7 16.1 0.00 0.00 0.00 84 1008.7
20260507160234 16 187 9.7 17.7 0.00 0.00 0.00 85 1008.7
20260507155737 16 144 8.0 19.3 0.00 0.00 0.00 85 1008.7
20260507155234 16 172 9.7 17.7 0.00 0.00 0.00 84 1008.6
20260507154737 16 189 11.3 20.9 0.00 0.00 0.00 83 1008.7
20260507154237 17 212 14.5 22.5 0.00 0.00 0.00 82 1008.8
20260507153737 17 188 6.4 19.3 0.00 0.00 0.00 84 1008.8
20260507153234 16 196 17.7 19.3 0.00 0.00 0.00 84 1008.8
20260507152735 16 196 12.9 17.7 0.00 0.00 0.00 83 1008.7
20260507152234 16 188 4.8 24.1 0.00 0.00 0.00 83 1008.7
20260507151740 17 202 11.3 16.1 0.00 0.00 0.00 83 1008.8
20260507151240 17 164 4.8 22.5 0.00 0.00 0.00 83 1008.8
20260507150734 17 172 6.4 19.3 0.00 0.00 0.00 83 1008.9
20260507150237 17 196 9.7 16.1 0.00 0.00 0.00 83 1008.8
20260507145734 17 187 9.7 16.1 0.00 0.00 0.00 82 1008.8
20260507145240 17 161 11.3 19.3 0.00 0.00 0.00 82 1008.7
20260507144734 17 188 9.7 17.7 0.00 0.00 0.00 82 1008.7
20260507144234 17 206 14.5 22.5 0.00 0.00 0.00 82 1008.9
20260507143740 17 191 4.8 22.5 0.00 0.00 0.00 83 1008.9
20260507143234 16 157 8.0 22.5 0.00 0.00 0.00 83 1008.8
20260507142737 17 175 14.5 22.5 0.00 0.00 0.00 82 1009.0
20260507142237 17 201 14.5 22.5 0.00 0.00 0.00 81 1009.1
20260507141742 17 187 11.3 24.1 0.00 0.00 0.00 81 1009.0
20260507141240 17 122 6.4 25.7 0.00 0.00 0.00 82 1009.0
20260507140734 17 192 19.3 24.1 0.00 0.00 0.00 82 1009.0
20260507140234 17 161 14.5 24.1 0.00 0.00 0.00 84 1009.0
20260507135734 17 136 11.3 27.4 0.00 0.00 0.00 84 1008.9
20260507135234 17 189 19.3 30.6 0.00 0.00 0.00 82 1009.0
20260507134734 17 201 4.8 29.0 0.00 0.00 0.00 83 1009.1
20260507134240 17 196 20.9 25.7 0.00 0.00 0.00 83 1009.1
20260507133734 17 187 9.7 24.1 0.00 0.00 0.00 82 1009.0
20260507133234 17 198 8.0 27.4 0.00 0.00 0.00 83 1009.0
20260507132734 17 237 9.7 29.0 0.00 0.00 0.00 82 1009.0
20260507132240 17 205 29.0 27.4 0.00 0.00 0.00 83 1009.0
20260507131735 17 198 17.7 30.6 0.00 0.00 0.00 83 1009.0
20260507131234 17 187 22.5 30.6 0.00 0.00 0.00 84 1009.1
20260507130734 16 202 11.3 30.6 0.00 0.00 0.00 84 1009.0
20260507130237 17 198 16.1 30.6 0.00 0.00 0.00 84 1009.0
20260507125734 17 168 8.0 30.6 0.00 0.00 0.00 82 1009.2
20260507125236 18 171 8.0 22.5 0.00 0.00 0.00 79 1009.0
20260507124734 18 170 3.2 14.5 0.00 0.00 0.00 82 1009.0
20260507124241 17 143 4.8 30.6 0.00 0.00 0.00 82 1008.9
20260507123734 17 202 19.3 22.5 0.00 0.00 0.00 82 1008.9
20260507123234 17 205 11.3 20.9 0.00 0.00 0.00 82 1008.9
20260507122737 17 74 6.4 20.9 0.00 0.00 0.00 82 1008.9
20260507122238 17 182 12.9 25.7 0.00 0.00 0.00 81 1008.8
20260507121737 17 149 9.7 27.4 0.00 0.00 0.00 81 1008.7
20260507121234 17 157 14.5 20.9 0.00 0.00 0.00 82 1008.8
20260507120734 17 146 9.7 25.7 0.00 0.00 0.00 82 1008.8
20260507120234 17 192 12.9 24.1 0.00 0.00 0.00 82 1008.9
20260507115734 17 177 16.1 29.0 0.00 0.00 0.00 81 1008.8
20260507115234 17 184 11.3 27.4 0.00 0.00 0.00 80 1008.8
20260507114734 17 150 17.7 27.4 0.00 0.00 0.00 81 1008.8
20260507114241 17 136 11.3 25.7 0.00 0.00 0.00 81 1008.9
20260507113737 18 160 16.1 22.5 0.00 0.00 0.00 81 1009.0
20260507113234 17 187 20.9 27.4 0.00 0.00 0.00 80 1009.1
20260507112734 17 205 8.0 17.7 0.00 0.00 0.00 81 1009.1
20260507112234 17 182 4.8 24.1 0.00 0.00 0.00 81 1009.1
20260507111737 16 189 16.1 25.7 0.00 0.00 0.00 81 1009.2
20260507111234 17 210 9.7 24.1 0.00 0.00 0.00 81 1009.2
20260507110740 17 182 20.9 24.1 0.00 0.00 0.00 81 1009.2
20260507110234 17 149 11.3 25.7 0.00 0.00 0.00 82 1009.2
20260507105734 17 189 8.0 20.9 0.00 0.00 0.00 83 1009.0
20260507105234 17 194 16.1 25.7 0.00 0.00 0.00 82 1008.9
20260507104734 17 210 16.1 27.4 0.00 0.00 0.00 83 1008.9
20260507104237 17 217 6.4 22.5 0.00 0.00 0.00 82 1009.0
20260507103743 17 171 9.7 22.5 0.00 0.00 0.00 82 1009.0
20260507103234 17 78 6.4 22.5 0.00 0.00 0.00 84 1008.9
20260507102734 17 161 12.9 27.4 0.00 0.00 0.00 84 1009.0
20260507102234 16 153 11.3 30.6 0.00 0.00 0.00 84 1009.0
20260507101740 16 142 9.7 33.8 0.00 0.00 0.00 86 1008.9
20260507101234 16 163 16.1 29.0 0.00 0.00 0.00 86 1008.9
20260507100734 16 168 9.7 25.7 0.00 0.00 0.00 89 1009.0
20260507100234 16 172 9.7 25.7 0.00 0.00 0.00 86 1009.1
20260507095734 16 191 9.7 24.1 0.00 0.00 0.00 85 1009.0
20260507095234 16 104 9.7 22.5 0.00 0.00 0.00 84 1009.0
20260507094734 16 202 16.1 25.7 0.00 0.00 0.00 83 1008.9
20260507094234 17 156 16.1 25.7 0.00 0.00 0.00 81 1009.0
20260507093740 17 168 14.5 30.6 0.00 0.00 0.00 82 1008.9
20260507093237 17 97 12.9 25.7 0.00 0.00 0.00 82 1008.9
20260507092734 17 198 16.1 29.0 0.00 0.00 0.00 82 1008.9
20260507092235 17 192 16.1 29.0 0.00 0.00 0.00 81 1008.8
20260507091734 17 154 14.5 25.7 0.00 0.00 0.00 82 1008.8
20260507091237 17 201 16.1 32.2 0.00 0.00 0.00 82 1008.8
20260507090734 17 136 17.7 27.4 0.00 0.00 0.00 81 1008.8
20260507090237 17 199 12.9 29.0 0.00 0.00 0.00 82 1008.8
20260507085735 16 192 11.3 29.0 0.00 0.00 0.00 82 1008.8
20260507085241 17 126 20.9 29.0 0.00 0.00 0.00 82 1008.7
20260507084737 17 168 11.3 32.2 0.00 0.00 0.00 81 1008.7
20260507084241 16 84 4.8 32.2 0.00 0.00 0.00 83 1008.6
20260507083738 16 153 20.9 32.2 0.00 0.00 0.00 82 1008.4
20260507083235 16 164 19.3 24.1 0.00 0.00 0.00 83 1008.4
20260507082738 16 188 4.8 29.0 0.00 0.00 0.00 84 1008.5
20260507082238 16 150 16.1 27.4 0.00 0.00 0.00 84 1008.5
20260507081735 16 163 11.3 30.6 0.00 0.00 0.00 84 1008.4
20260507081235 16 146 20.9 29.0 0.00 0.00 0.00 82 1008.2
20260507080735 16 140 9.7 27.4 0.00 0.00 0.00 81 1008.1
20260507080238 16 167 8.0 27.4 0.00 0.00 0.00 82 1008.3
20260507075739 16 165 16.1 27.4 0.00 0.00 0.00 82 1008.3
20260507075245 16 142 11.3 27.4 0.00 0.00 0.00 82 1008.1
20260507074735 16 213 14.5 24.1 0.00 0.00 0.00 81 1008.0
20260507074238 16 130 12.9 25.7 0.00 0.00 0.00 80 1008.0
20260507073735 16 130 6.4 22.5 0.00 0.00 0.00 78 1007.8
20260507073238 16 157 8.0 25.7 0.00 0.00 0.00 79 1007.9
20260507072741 16 118 3.2 20.9 0.00 0.00 0.00 79 1008.0
20260507072244 16 215 9.7 19.3 0.00 0.00 0.00 79 1007.9
20260507071735 16 140 3.2 16.1 0.00 0.00 0.00 79 1007.9
20260507071244 16 87 6.4 12.9 0.00 0.00 0.00 79 1008.0
20260507070735 16 191 8.0 20.9 0.00 0.00 0.00 79 1008.0
20260507070241 16 15 6.4 19.3 0.00 0.00 0.00 78 1007.8
20260507065742 16 189 3.2 12.9 0.00 0.03 0.00 78 1007.8
20260507065238 16 63 1.6 8.0 0.00 0.08 0.00 80 1007.8
20260507064739 16 331 1.6 4.8 0.00 0.08 0.00 81 1007.7
20260507064239 16 181 3.2 8.0 0.00 0.08 0.00 80 1007.8
20260507063735 16 150 1.6 9.7 0.00 0.08 0.00 80 1007.8
20260507063236 16 158 3.2 12.9 0.00 0.08 0.00 80 1007.8
20260507062735 16 125 4.8 12.9 0.00 0.10 0.00 80 1007.8
20260507062235 16 157 3.2 9.7 0.00 0.10 0.00 82 1007.7
20260507061738 16 205 0.0 8.0 0.00 0.10 0.00 82 1007.7
20260507061236 16 338 1.6 4.8 0.00 0.10 0.00 82 1007.7
20260507060738 16 11 0.0 16.1 0.00 0.10 0.00 83 1007.6
20260507060238 15 133 14.5 16.1 0.00 0.10 0.00 83 1007.6
20260507055736 15 161 6.4 6.4 0.00 0.10 0.00 84 1007.6
20260507055240 15 237 1.6 8.0 0.00 0.10 0.00 85 1007.6
20260507054735 15 171 1.6 9.7 0.00 0.10 0.00 85 1007.7
20260507054238 15 94 4.8 11.3 0.00 0.10 0.00 84 1007.7
20260507053735 15 126 1.6 6.4 0.00 0.10 0.00 85 1007.6
20260507053241 15 132 0.0 1.6 0.00 0.10 0.00 85 1007.6
20260507052735 15 132 1.6 4.8 0.00 0.10 0.00 85 1007.6
20260507052235 15 123 0.0 11.3 0.00 0.10 0.00 85 1007.5
20260507051735 15 180 0.0 6.4 0.00 0.10 0.00 85 1007.5
20260507051244 15 126 0.0 9.7 0.00 0.10 0.00 85 1007.4
20260507050735 15 142 1.6 11.3 0.00 0.10 0.00 85 1007.3
20260507050241 14 143 6.4 16.1 0.00 0.10 0.00 85 1007.1
20260507045736 14 146 1.6 12.9 0.00 0.10 0.00 86 1007.1
20260507045236 15 158 3.2 8.0 0.00 0.13 0.00 85 1007.2
20260507044736 15 135 1.6 11.3 0.00 0.13 0.00 86 1007.0
20260507044238 15 129 6.4 20.9 0.00 0.13 0.00 86 1007.1
20260507043738 15 184 0.0 9.7 0.00 0.13 0.00 86 1007.0
20260507043242 15 184 6.4 14.5 0.00 0.13 0.00 86 1007.0
20260507042735 15 156 9.7 11.3 0.00 0.13 0.00 86 1007.0
20260507042235 15 123 0.0 11.3 0.00 0.13 0.00 86 1007.0
20260507041738 15 146 8.0 9.7 0.00 0.13 0.00 86 1006.9
20260507041241 15 144 1.6 12.9 0.00 0.15 0.00 86 1006.8
20260507040736 15 135 4.8 14.5 0.00 0.18 0.00 86 1006.8
20260507040238 15 133 3.2 14.5 0.00 0.18 0.00 86 1006.9
20260507035735 15 133 11.3 14.5 0.00 0.20 0.00 86 1006.8
20260507035238 15 147 1.6 17.7 0.00 0.23 0.00 86 1006.9
20260507034742 15 164 12.9 16.1 0.00 0.23 0.00 86 1006.9
20260507034236 15 137 11.3 12.9 0.00 0.23 0.00 86 1006.9
20260507033738 15 146 8.0 14.5 0.00 0.23 0.00 86 1006.9
20260507033235 15 129 9.7 14.5 0.00 0.23 0.00 86 1006.9
20260507032738 15 116 8.0 9.7 0.00 0.23 0.00 86 1006.8
20260507032238 15 142 0.0 16.1 0.00 0.23 0.00 86 1006.8
20260507031735 15 182 3.2 17.7 0.00 0.23 0.00 86 1006.9
20260507031235 15 213 3.2 12.9 0.00 0.23 0.00 86 1006.9
20260507030735 15 161 1.6 17.7 0.00 0.23 0.00 86 1006.9
20260507030236 15 165 0.0 12.9 0.00 0.23 0.00 86 1006.9
20260507025735 15 136 3.2 17.7 0.00 0.23 0.00 86 1006.9
20260507025239 15 137 8.0 12.9 0.00 0.23 0.00 86 1006.8
20260507024735 15 157 4.8 24.1 0.00 0.23 0.00 85 1006.8
20260507024241 15 142 1.6 24.1 0.00 0.23 0.00 85 1006.8
20260507023738 15 151 9.7 19.3 0.00 0.23 0.00 85 1006.8
20260507023241 15 168 3.2 16.1 0.00 0.25 0.00 85 1006.8
20260507022736 15 163 4.8 17.7 0.00 0.25 0.00 85 1006.8
20260507022241 15 244 12.9 17.7 0.00 0.25 0.00 85 1006.8
20260507021738 15 164 0.0 12.9 0.00 0.28 0.00 85 1006.9
20260507021239 15 206 11.3 17.7 0.00 0.30 0.00 85 1006.8
20260507020735 15 143 16.1 16.1 0.00 0.33 0.00 85 1006.8
20260507020232 15 182 0.0 12.9 0.00 0.36 0.00 85 1006.8
20260507015732 15 142 1.6 9.7 0.00 0.36 0.00 85 1006.8
20260507015238 15 165 9.7 14.5 0.00 0.43 0.00 85 1006.7
20260507014732 15 167 1.6 12.9 0.00 0.46 0.00 85 1006.7
20260507014235 15 154 4.8 14.5 0.00 0.56 0.00 85 1006.6
20260507013732 15 156 4.8 16.1 0.00 0.61 0.00 85 1006.7
20260507013232 15 130 8.0 17.7 0.00 0.66 0.00 85 1006.8
20260507012732 15 194 8.0 14.5 0.00 0.71 0.00 85 1006.8
20260507012233 15 147 4.8 14.5 0.00 0.74 0.00 85 1006.8
20260507011735 15 140 3.2 19.3 0.00 0.81 0.00 85 1006.9
20260507011232 15 125 9.7 17.7 0.00 0.97 0.00 84 1006.9
20260507010735 15 167 11.3 19.3 0.00 0.99 0.00 84 1006.9
20260507010232 15 133 11.3 17.7 0.00 0.99 0.00 84 1006.9
20260507005732 15 85 14.5 17.7 0.00 0.99 0.00 85 1007.0
20260507005232 15 182 12.9 19.3 0.00 1.02 0.00 84 1007.0
20260507004732 15 163 12.9 19.3 0.00 1.02 0.00 84 1007.0
20260507004238 15 150 16.1 17.7 0.00 1.02 0.00 85 1007.1
20260507003735 15 202 6.4 17.7 0.00 1.02 0.00 85 1006.9
20260507003232 15 146 16.1 19.3 0.00 1.02 0.00 85 1006.9
20260507002732 15 175 9.7 25.7 0.00 1.02 0.00 85 1006.9
20260507002235 15 174 6.4 20.9 0.00 1.02 0.00 84 1006.9
20260507001732 15 174 11.3 20.9 0.00 1.02 0.00 84 1006.9
20260507001232 15 192 8.0 24.1 0.00 1.04 0.00 84 1006.8
20260507000735 15 188 11.3 27.4 0.00 1.07 0.00 84 1006.8
20260507000234 15 101 6.4 22.5 0.00 1.07 0.00 84 1006.8
20260506235735 15 170 17.7 19.3 0.00 1.07 0.00 84 1006.9
20260506235238 15 188 12.9 24.1 0.00 1.07 0.00 84 1007.0
20260506234735 15 170 8.0 20.9 0.00 1.07 0.00 83 1007.0
20260506234232 15 212 17.7 22.5 0.00 1.07 0.00 83 1007.0
20260506233738 15 171 9.7 24.1 0.00 1.07 0.00 83 1007.0
20260506233235 15 170 16.1 25.7 0.00 1.07 0.00 82 1007.0
20260506232735 15 163 14.5 22.5 0.00 1.07 0.00 82 1007.1
20260506232235 15 191 12.9 24.1 0.00 1.07 0.00 82 1007.0
20260506231739 15 163 12.9 20.9 0.00 1.07 0.00 82 1007.0
20260506231232 15 164 14.5 22.5 0.00 1.07 0.00 81 1007.1
20260506230736 15 149 9.7 24.1 0.00 1.07 0.00 81 1007.0
20260506230232 15 156 12.9 17.7 0.00 1.07 0.00 82 1007.1
20260506225732 15 158 4.8 19.3 0.00 1.07 0.00 81 1007.0
20260506225238 15 196 8.0 19.3 0.00 1.07 0.00 82 1007.1
20260506224732 15 164 6.4 20.9 0.00 1.07 0.00 82 1007.1